Lid_Strength_Index
1 -0 -1 -1 -1 -1 -1 -1 -1 -1 -2 -2 -2 -2 -1 -1 -1 -2 -2 -2 -2 -2 -2 -2 -2 -2 -2 -2 -2 -2 -2 -2 -2 -2 -2 -2 -2 -2 -2 -2 -2 -1 -2
0 -0 -1 -1 -1 -1 -1 -2 -2 -2 -2 -2 -1 -1 -1 -1 -2 -2 -2 -2 -2 -2 -2 -2 -2 -2 -2 -2 -2 -2 -2 -2 -2 -2 -2 -1 -2 -2 -2 -2 -2 -1 -2
0 -0 -1 -1 -2 -2 -2 -2 -2 -2 -2 -2 -1 -1 -2 -2 -2 -2 -2 -2 -2 -2 -2 -2 -2 -2 -2 -2 -2 -2 -2 -2 -2 -2 -2 -1 -1 -2 -2 -2 -2 -2 -2
-0 -0 -0 -1 -2 -1 -2 -2 -2 -2 -2 -2 -2 -2 -2 -2 -2 -2 -2 -2 -2 -2 -2 -2 -2 -2 -2 -2 -2 -2 -2 -2 -2 -2 -1 -1 -1 -2 -2 -2 -2 -2 -2
0 -0 -1 -1 -1 -1 -2 -2 -2 -2 -2 -2 -2 -2 -2 -2 -2 -2 -2 -2 -2 -2 -2 -2 -2 -2 -2 -2 -2 -2 -3 -3 -2 -1 -1 -1 -1 -2 -2 -2 -2 -2 -2
0 -0 -1 -1 -1 -1 -2 -2 -2 -2 -2 -2 -2 -2 -2 -2 -2 -2 -2 -2 -2 -2 -2 -2 -2 -2 -2 -2 -2 -2 -2 -3 -2 0 0 -1 -0 -2 -2 -2 -2 -2 -2
0 -0 -0 -1 -2 -2 -2 -2 -2 -2 -2 -2 -2 -2 -2 -2 -2 -2 -2 -2 -2 -2 -2 -2 -2 -2 -2 -2 -2 -2 -3 -2 0 -0 0 0 -0 -2 -2 -2 -2 -2 -2
0 -0 -0 -1 -1 -2 -2 -2 -2 -2 -2 -2 -2 -2 -2 -2 -2 -2 -2 -2 -2 -2 -2 -2 -2 -2 -2 -2 -2 -3 -3 -2 -0 -0 0 0 -2 -2 -2 -2 -2 -2 -2
-0 -0 -0 -0 -1 -1 -2 -2 -2 -2 -2 -2 -2 -2 -2 -2 -2 -2 -2 -2 -2 -2 -2 -2 -2 -2 -2 -2 -3 -3 -3 -2 0 -0 -1 0 -3 -2 -2 -2 -2 -2 -2
0 0 0 -0 -0 -1 -1 -1 -1 -2 -2 -2 -2 -2 -1 -1 -2 -2 -2 -2 -2 -1 -1 -2 -2 -2 -2 -2 -2 -2 -2 -2 0 0 0 -1 -2 -3 -2 -2 -2 -2 -2
1 0 -0 -0 0 -0 -1 -1 -1 -1 -1 -1 -1 -1 -1 -0 -0 -1 -1 -2 -2 -2 -1 -2 -2 -2 -3 -3 -2 -2 -2 1 -0 0 0 -3 -2 -2 -2 -2 -2 -2 -2
2 1 0 0 -0 -0 -1 -0 -0 -1 -0 -0 -0 -0 -0 0 -0 -1 -0 -1 -2 -3 -3 -2 -2 -2 -2 0 0 -1 1 1 -0 0 -0 -3 -2 -2 -2 -2 -2 -2 -2
2 1 0 0 -0 0 0 -0 0 -0 0 0 0 0 1 0 0 0 1 1 0 -0 0 -1 -0 1 1 1 1 1 1 1 0 -0 -1 -2 -2 -2 -2 -2 -2 -2 -2
2 1 1 -0 -0 0 -0 -0 -0 0 1 1 0 0 0 1 1 0 0 1 1 0 1 1 1 2 3 3 3 3 3 3 1 1 -0 -2 -2 -2 -2 -2 -2 -2 -2
2 1 1 0 0 0 -0 0 0 1 1 1 1 0 0 1 1 1 1 1 1 1 1 2 3 3 4 4 4 4 4 4 2 1 1 -2 -2 -2 -2 -2 -2 -2 -2
2 1 1 0 -0 0 0 0 0 1 0 1 1 1 0 0 1 1 1 1 1 1 1 2 3 3 3 3 3 3 4 4 4 3 2 1 -1 -1 -0 -0 -0 -0 -1
2 1 1 0 -0 0 0 0 1 0 0 0 0 0 0 0 1 1 1 1 1 1 1 2 2 2 3 3 3 3 4 4 4 3 3 3 2 1 1 1 1 1 1
1 1 1 0 0 0 0 0 1 0 0 0 1 1 0 -0 0 1 1 1 1 1 1 2 2 3 3 3 4 4 4 4 4 4 4 4 3 4 3 2 2 2 2
1 1 1 1 1 0 0 0 0 1 1 1 0 1 0 0 0 1 0 1 1 1 1 2 2 2 3 4 4 4 5 5 4 3 5 5 5 6 5 2 3 4 4
2 1 1 1 0 0 0 1 0 0 1 0 0 -0 0 0 0 0 1 1 1 1 2 2 2 3 4 5 4 4 5 4 4 5 6 6 6 8 7 6 7 6 4
1 1 1 1 1 1 1 2 1 2 1 1 0 -0 -0 -0 0 0 1 1 1 2 2 2 2 3 4 4 5 5 5 5 4 5 5 7 7 8 7 8 8 9 9
2 2 1 1 1 1 1 2 2 2 2 1 1 0 -0 -0 0 1 1 1 1 2 2 2 2 3 4 4 5 6 7 6 5 4 5 6 9 8 8 8 9 9 10
2 2 2 1 1 1 1 2 2 2 2 1 1 0 0 -0 0 1 1 1 1 1 2 2 3 3 5 5 4 5 7 8 7 5 5 6 9 10 9 8 9 9 10
2 2 1 1 1 1 1 2 2 2 3 2 1 0 0 0 0 1 1 1 1 1 2 3 2 3 4 6 6 5 7 7 8 8 6 6 9 9 10 9 9 9 10
2 2 1 2 2 2 1 2 2 2 2 2 1 1 1 1 1 1 1 1 2 1 2 3 3 4 5 5 7 7 7 8 9 9 9 9 9 10 10 9 10 10 10
3 2 2 2 2 2 1 2 2 2 2 2 2 2 2 2 1 1 1 1 2 2 2 3 4 5 6 6 7 8 8 9 10 11 12 12 12 11 10 10 10 10 10